[Date Prev][Date Next][Thread Prev][Thread Next] - [Date Index][Thread Index][Author Index]

2 Line ISS Keps 11-08



ISS
1 25544U 98067A   01312.13140046  .00091733  00000-0  11002-2 0  7005
2 25544  51.6395  84.8192 0008428 297.4368  67.6034 15.60112444169543


----
Via the sarex mailing list at AMSAT.ORG courtesy of AMSAT-NA.
To unsubscribe, send "unsubscribe sarex" to Majordomo@amsat.org



AMSAT Top AMSAT Home